When you browse on this site, cookies collect data to enhance your experience and personalize the content and advertising you see.
Visit our Privacy Policy to learn more. By continuing to use the site, you agree to this use of cookies and data.
  • In Hungary
  • List of Countries
  • For 7 days
  • Water Temperature
  • Satellite Maps
  • Weather Map
  • News
  • Weather Widgets
  • user-avatar
    Login

    Hourly Weather Novotroick

    Today, 20 November, Tuesday

    Time Temperature Precipitation Wind Pressure Humidity
    00:00 -2°C° 0.1 mm 3 mps 761 mmHg 90%
    01:00 -4°C° 0 mm 3 mps 761 mmHg 90%
    02:00 -3°C° 0 mm 2 mps 761 mmHg 91%
    03:00 -4°C° 0 mm 2 mps 761 mmHg 93%
    04:00 -4°C° 0 mm 2 mps 761 mmHg 93%
    05:00 -5°C° 0 mm 2 mps 761 mmHg 93%
    06:00 -5°C° 0 mm 2 mps 761 mmHg 94%
    07:00 -5°C° 0 mm 2 mps 761 mmHg 93%
    08:00 -5°C° 0 mm 2 mps 761 mmHg 92%
    09:00 -4°C° 0 mm 2 mps 760 mmHg 89%
    10:00 -4°C° 0 mm 2 mps 760 mmHg 87%
    11:00 -4°C° 0 mm 2 mps 760 mmHg 84%
    12:00 -3°C° 0 mm 2 mps 759 mmHg 81%
    13:00 -3°C° 0 mm 2 mps 759 mmHg 81%
    14:00 -3°C° 0 mm 2 mps 758 mmHg 81%
    15:00 -3°C° 0 mm 2 mps 758 mmHg 81%
    16:00 -4°C° 0 mm 3 mps 757 mmHg 81%
    17:00 -4°C° 0 mm 3 mps 756 mmHg 82%
    18:00 -5°C° 0 mm 3 mps 756 mmHg 82%
    19:00 -5°C° 0 mm 4 mps 755 mmHg 83%
    20:00 -5°C° 0 mm 4 mps 755 mmHg 83%
    21:00 -5°C° 0 mm 4 mps 754 mmHg 83%
    22:00 -5°C° 0 mm 4 mps 753 mmHg 82%
    23:00 -5°C° 0 mm 4 mps 753 mmHg 81%

    Tomorrow, 21 November, Wednesday

    Time Temperature Precipitation Wind Pressure Humidity
    00:00 -7°C° 0 mm 4 mps 752 mmHg 81%
    01:00 -5°C° 0 mm 4 mps 752 mmHg 80%
    02:00 -5°C° 0 mm 4 mps 751 mmHg 79%
    03:00 -5°C° 0 mm 4 mps 751 mmHg 78%
    04:00 -5°C° 0.1 mm 4 mps 750 mmHg 80%
    05:00 -5°C° 0.1 mm 5 mps 750 mmHg 82%
    06:00 -5°C° 0.1 mm 5 mps 749 mmHg 84%
    07:00 -5°C° 0.1 mm 5 mps 749 mmHg 84%
    08:00 -5°C° 0.1 mm 5 mps 749 mmHg 84%
    09:00 -4°C° 0.1 mm 5 mps 749 mmHg 83%
    10:00 -4°C° 0.1 mm 5 mps 749 mmHg 81%
    11:00 -3°C° 0.1 mm 6 mps 749 mmHg 78%
    12:00 -3°C° 0.1 mm 6 mps 749 mmHg 76%
    13:00 -2°C° 0.1 mm 5 mps 749 mmHg 75%
    14:00 -4°C° 0.1 mm 5 mps 749 mmHg 74%
    15:00 -5°C° 0.1 mm 5 mps 749 mmHg 73%
    16:00 -5°C° 0 mm 5 mps 750 mmHg 74%
    17:00 -6°C° 0 mm 5 mps 750 mmHg 76%
    18:00 -7°C° 0 mm 4 mps 750 mmHg 77%
    19:00 -7°C° 0 mm 4 mps 750 mmHg 78%
    20:00 -7°C° 0 mm 4 mps 750 mmHg 79%
    21:00 -8°C° 0 mm 4 mps 750 mmHg 80%
    22:00 -8°C° 0 mm 4 mps 749 mmHg 81%
    23:00 -8°C° 0 mm 4 mps 749 mmHg 83%

    Day after tomorrow, 22 November, Thursday

    Time Temperature Precipitation Wind Pressure Humidity
    00:00 -8°C° 0 mm 4 mps 749 mmHg 84%
    01:00 -7°C° 0.1 mm 4 mps 748 mmHg 85%
    02:00 -7°C° 0.1 mm 4 mps 748 mmHg 87%
    03:00 -6°C° 0.1 mm 3 mps 748 mmHg 88%
    04:00 -6°C° 0.1 mm 3 mps 748 mmHg 89%
    05:00 -6°C° 0.1 mm 3 mps 747 mmHg 90%
    06:00 -6°C° 0.1 mm 3 mps 747 mmHg 91%
    07:00 -7°C° 0.2 mm 4 mps 746 mmHg 89%
    08:00 -7°C° 0.2 mm 4 mps 746 mmHg 88%
    09:00 -5°C° 0.2 mm 4 mps 745 mmHg 86%
    10:00 -6°C° 0.3 mm 5 mps 745 mmHg 87%
    11:00 -6°C° 0.3 mm 5 mps 744 mmHg 87%
    12:00 -5°C° 0.3 mm 5 mps 743 mmHg 88%
    13:00 -5°C° 0.5 mm 5 mps 742 mmHg 88%
    14:00 -5°C° 0.5 mm 5 mps 741 mmHg 87%
    15:00 -5°C° 0.5 mm 5 mps 741 mmHg 86%
    16:00 -5°C° 0.3 mm 6 mps 740 mmHg 86%
    17:00 -5°C° 0.3 mm 6 mps 740 mmHg 86%
    18:00 -4°C° 0.3 mm 6 mps 740 mmHg 86%
    19:00 -5°C° 0.1 mm 5 mps 739 mmHg 86%
    20:00 -5°C° 0.1 mm 4 mps 739 mmHg 86%
    21:00 -6°C° 0.1 mm 3 mps 738 mmHg 85%
    22:00 -6°C° 0.2 mm 3 mps 738 mmHg 88%
    23:00 -6°C° 0.2 mm 2 mps 738 mmHg 90%

    23 November, Friday

    Time Temperature Precipitation Wind Pressure Humidity
    00:00 -6°C° 0.2 mm 2 mps 738 mmHg 93%
    01:00 -8°C° 0.5 mm 4 mps 739 mmHg 89%
    02:00 -9°C° 0.5 mm 6 mps 739 mmHg 86%
    03:00 -9°C° 0.5 mm 7 mps 740 mmHg 83%
    04:00 -9°C° 0.1 mm 7 mps 741 mmHg 82%
    05:00 -11°C° 0.1 mm 7 mps 743 mmHg 81%
    06:00 -11°C° 0.1 mm 7 mps 744 mmHg 80%
    07:00 -11°C° 0 mm 7 mps 745 mmHg 80%
    08:00 -10°C° 0 mm 6 mps 746 mmHg 80%
    09:00 -10°C° 0 mm 6 mps 747 mmHg 80%
    10:00 -10°C° 0 mm 6 mps 748 mmHg 80%
    11:00 -10°C° 0 mm 6 mps 749 mmHg 79%
    12:00 -10°C° 0 mm 6 mps 750 mmHg 78%
    13:00 -11°C° 0 mm 5 mps 750 mmHg 79%
    14:00 -11°C° 0 mm 5 mps 751 mmHg 80%
    15:00 -11°C° 0 mm 5 mps 751 mmHg 80%
    16:00 -11°C° 0 mm 4 mps 751 mmHg 81%
    17:00 -11°C° 0 mm 4 mps 752 mmHg 81%
    18:00 -11°C° 0 mm 4 mps 752 mmHg 81%
    19:00 -12°C° 0 mm 5 mps 752 mmHg 81%
    20:00 -11°C° 0 mm 5 mps 752 mmHg 81%
    21:00 -11°C° 0 mm 5 mps 751 mmHg 81%
    22:00 -10°C° 0 mm 5 mps 751 mmHg 82%
    23:00 -10°C° 0 mm 5 mps 751 mmHg 83%

    24 November, Saturday

    Time Temperature Precipitation Wind Pressure Humidity
    00:00 -10°C° 0 mm 5 mps 751 mmHg 84%
    01:00 -10°C° 0 mm 5 mps 751 mmHg 85%
    02:00 -10°C° 0 mm 5 mps 751 mmHg 87%
    03:00 -10°C° 0 mm 5 mps 751 mmHg 89%
    04:00 -8°C° 0.1 mm 5 mps 751 mmHg 88%
    05:00 -7°C° 0.1 mm 5 mps 751 mmHg 88%
    06:00 -6°C° 0.1 mm 5 mps 750 mmHg 88%
    07:00 -6°C° 0.1 mm 5 mps 750 mmHg 88%
    08:00 -6°C° 0.1 mm 5 mps 750 mmHg 88%
    09:00 -6°C° 0.1 mm 6 mps 750 mmHg 89%
    10:00 -6°C° 0.1 mm 6 mps 749 mmHg 87%
    11:00 -6°C° 0.1 mm 6 mps 749 mmHg 85%
    12:00 -6°C° 0.1 mm 6 mps 749 mmHg 84%
    13:00 -6°C° 0 mm 6 mps 749 mmHg 83%
    14:00 -6°C° 0 mm 6 mps 749 mmHg 83%
    15:00 -6°C° 0 mm 5 mps 749 mmHg 83%
    16:00 -5°C° 0 mm 5 mps 749 mmHg 83%
    17:00 -5°C° 0 mm 5 mps 749 mmHg 84%
    18:00 -5°C° 0 mm 5 mps 749 mmHg 84%
    19:00 -5°C° 0 mm 5 mps 748 mmHg 85%
    20:00 -5°C° 0 mm 5 mps 748 mmHg 85%
    21:00 -5°C° 0 mm 5 mps 748 mmHg 85%
    22:00 -6°C° 0 mm 5 mps 748 mmHg 85%
    23:00 -6°C° 0 mm 5 mps 748 mmHg 85%

    25 November, Sunday

    Time Temperature Precipitation Wind Pressure Humidity
    00:00 -6°C° 0 mm 5 mps 748 mmHg 86%
    01:00 -6°C° 0 mm 5 mps 748 mmHg 86%
    02:00 -6°C° 0 mm 5 mps 748 mmHg 86%
    03:00 -6°C° 0 mm 5 mps 748 mmHg 87%
    04:00 -6°C° 0.1 mm 5 mps 748 mmHg 87%
    05:00 -6°C° 0.1 mm 5 mps 747 mmHg 87%
    06:00 -6°C° 0.1 mm 5 mps 747 mmHg 88%
    07:00 -6°C° 0.1 mm 5 mps 747 mmHg 88%
    08:00 -6°C° 0.1 mm 5 mps 747 mmHg 88%
    09:00 -6°C° 0.1 mm 5 mps 747 mmHg 88%
    10:00 -5°C° 0.1 mm 5 mps 748 mmHg 87%
    11:00 -5°C° 0.1 mm 5 mps 748 mmHg 85%
    12:00 -4°C° 0.1 mm 5 mps 748 mmHg 84%
    13:00 -3°C° 0.1 mm 4 mps 749 mmHg 85%
    14:00 -3°C° 0.1 mm 4 mps 750 mmHg 85%
    15:00 -3°C° 0.1 mm 4 mps 750 mmHg 86%
    16:00 -4°C° 0 mm 3 mps 751 mmHg 88%
    17:00 -6°C° 0 mm 3 mps 751 mmHg 90%
    18:00 -6°C° 0 mm 2 mps 752 mmHg 92%
    19:00 -7°C° 0 mm 2 mps 752 mmHg 93%
    20:00 -7°C° 0 mm 2 mps 752 mmHg 94%
    21:00 -8°C° 0 mm 2 mps 752 mmHg 94%
    22:00 -8°C° 0 mm 2 mps 753 mmHg 95%
    23:00 -8°C° 0 mm 1 mps 753 mmHg 95%
    Show more